EW5697 Weather Reports


Display with metric or nautical units.
time (UTC)temp
F
wind
direction
speed
MPH
gust
MPH
rain 1hr
in
rain 24hr
in
rain mn
in
humidity
%
barometer
mb
20260507210011 76 202 0.0 0.0 0.00 0.00 0.00 50 1018.3
20260507204506 75 193 0.0 0.0 0.00 0.00 0.00 49 1018.4
20260507203104 74 202 0.0 0.0 0.00 0.00 0.00 49 1018.6
20260507201600 73 189 0.0 0.0 0.00 0.00 0.00 51 1018.6
20260507200057 72 212 0.0 0.0 0.00 0.00 0.00 53 1018.7
20260507194617 71 220 0.0 0.0 0.00 0.00 0.00 53 1018.9
20260507193048 70 227 0.0 0.0 0.00 0.00 0.00 56 1019.0
20260507191544 68 160 0.0 0.0 0.00 0.00 0.00 60 1019.1
20260507190048 67 250 0.0 1.0 0.00 0.00 0.00 63 1019.2
20260507184538 66 137 0.0 5.0 0.00 0.00 0.00 65 1019.3
20260507183042 65 113 0.0 1.0 0.00 0.00 0.00 65 1019.4
20260507181531 64 183 0.0 0.0 0.00 0.00 0.00 68 1019.4
20260507180035 64 212 0.0 0.0 0.00 0.00 0.00 70 1019.5
20260507174526 63 131 0.0 0.0 0.00 0.00 0.00 71 1019.6
20260507173035 63 175 0.0 0.0 0.00 0.00 0.00 73 1019.8
20260507171537 62 202 0.0 6.0 0.00 0.00 0.00 72 1019.9
20260507170018 61 202 0.0 0.0 0.00 0.00 0.00 75 1020.0
20260507164515 61 220 0.0 0.0 0.00 0.00 0.00 79 1019.9
20260507163013 60 181 0.0 0.0 0.00 0.00 0.00 79 1020.0
20260507161508 58 207 0.0 0.0 0.00 0.00 0.00 83 1020.1
20260507160007 57 168 0.0 0.0 0.00 0.00 0.00 85 1020.0
20260507154502 56 202 0.0 0.0 0.00 0.00 0.00 87 1020.1
20260507153101 55 197 0.0 0.0 0.00 0.00 0.00 88 1020.1
20260507151601 54 195 0.0 0.0 0.00 0.00 0.00 90 1020.1
20260507150100 53 185 0.0 0.0 0.00 0.00 0.00 90 1020.2
20260507144600 52 202 0.0 0.0 0.00 0.00 0.00 91 1020.2
20260507143059 52 170 0.0 0.0 0.00 0.00 0.00 91 1020.0
20260507141621 51 167 0.0 0.0 0.00 0.00 0.00 91 1020.0
20260507140052 51 168 0.0 0.0 0.00 0.00 0.00 91 1019.9
20260507134549 51 168 0.0 0.0 0.00 0.00 0.00 90 1019.8
20260507133048 51 168 0.0 0.0 0.00 0.00 0.00 89 1019.8
20260507131548 51 168 0.0 0.0 0.00 0.00 0.00 89 1019.7
20260507130046 52 168 0.0 0.0 0.00 0.00 0.00 89 1019.7
20260507124545 52 168 0.0 0.0 0.00 0.00 0.00 90 1019.7
20260507123045 52 129 0.0 0.0 0.00 0.00 0.00 89 1019.6
20260507121545 52 108 0.0 0.0 0.00 0.00 0.00 89 1019.7
20260507120048 52 108 0.0 0.0 0.00 0.00 0.00 89 1019.8
20260507114543 52 108 0.0 0.0 0.00 0.00 0.00 89 1019.9
20260507113046 52 108 0.0 0.0 0.00 0.00 0.00 89 1020.0
20260507111538 52 84 0.0 0.0 0.00 0.00 0.00 88 1020.2
20260507110038 52 83 0.0 0.0 0.00 0.00 0.00 88 1020.2
20260507104535 52 83 0.0 0.0 0.00 0.00 0.00 88 1020.3
20260507103033 52 83 0.0 0.0 0.00 0.00 0.00 87 1020.5
20260507101532 52 83 0.0 0.0 0.00 0.00 0.00 85 1020.6
20260507100037 52 83 0.0 0.0 0.00 0.00 0.00 84 1020.6
20260507094530 51 83 0.0 0.0 0.00 0.00 0.00 82 1020.7
20260507093027 51 83 0.0 0.0 0.00 0.00 0.00 80 1020.8
20260507091527 51 83 0.0 0.0 0.00 0.00 0.00 79 1020.8
20260507090023 51 83 0.0 0.0 0.00 0.00 0.00 78 1020.8
20260507084523 52 83 0.0 0.0 0.00 0.00 0.00 78 1020.8
20260507083022 52 83 0.0 0.0 0.00 0.00 0.00 77 1020.9
20260507081521 52 83 0.0 0.0 0.00 0.00 0.00 76 1020.9
20260507080016 53 83 0.0 0.0 0.00 0.00 0.00 75 1021.0
20260507074525 53 83 0.0 0.0 0.00 0.00 0.00 73 1020.9
20260507073012 54 83 0.0 0.0 0.00 0.00 0.00 72 1021.0
20260507071510 54 83 0.0 0.0 0.00 0.00 0.00 71 1021.0
20260507070009 55 83 0.0 0.0 0.00 0.00 0.00 71 1020.9
20260507064504 55 83 0.0 0.0 0.00 0.00 0.00 72 1021.0
20260507063004 55 83 0.0 0.0 0.00 0.00 0.00 70 1021.2
20260507061504 56 83 0.0 0.0 0.00 0.00 0.00 69 1021.2
20260507060004 56 83 0.0 0.0 0.00 0.00 0.00 70 1021.2
20260507054503 57 83 0.0 0.0 0.00 0.00 0.00 69 1021.2
20260507053004 58 83 0.0 0.0 0.00 0.00 0.00 65 1021.3
20260507051503 59 83 0.0 0.0 0.00 0.00 0.00 63 1021.3
20260507050001 60 83 0.0 0.0 0.00 0.00 0.00 62 1021.2
20260507044506 62 83 0.0 0.0 0.00 0.00 0.00 59 1021.0
20260507043002 62 83 0.0 0.0 0.00 0.00 0.00 56 1020.8
20260507041612 64 83 0.0 0.0 0.00 0.00 0.00 58 1020.7
20260507040108 64 83 0.0 0.0 0.00 0.00 0.00 56 1020.4
20260507034620 66 83 0.0 0.0 0.00 0.00 0.00 56 1020.3
20260507033107 67 83 0.0 0.0 0.00 0.00 0.00 53 1020.0
20260507031558 68 83 0.0 0.0 0.00 0.00 0.00 51 1019.6
20260507024604 71 195 0.0 0.0 0.00 0.00 0.00 55 1018.8
20260507023056 73 202 0.0 0.0 0.00 0.00 0.00 52 1018.5
20260507021607 75 207 0.0 0.0 0.00 0.00 0.00 48 1018.4
20260507020055 77 194 0.0 0.0 0.00 0.00 0.00 44 1018.4
20260507014555 79 231 0.0 0.0 0.00 0.00 0.00 42 1018.4
20260507013110 80 207 0.0 0.0 0.00 0.00 0.00 39 1018.5
20260507011553 81 238 0.0 0.0 0.00 0.00 0.00 36 1018.6
20260507010054 82 55 0.0 0.0 0.00 0.00 0.00 30 1018.6
20260507004554 83 282 0.0 0.0 0.00 0.00 0.00 31 1018.5
20260507003050 83 314 0.0 0.0 0.00 0.00 0.00 30 1018.5
20260507001608 83 311 0.0 0.0 0.00 0.00 0.00 29 1018.5
20260507000048 83 328 0.0 0.0 0.00 0.00 0.00 30 1018.6
20260506234556 83 320 0.0 0.0 0.00 0.00 0.00 32 1018.6
20260506233046 84 342 0.0 0.0 0.00 0.00 0.00 29 1018.7
20260506231545 84 343 0.0 0.0 0.00 0.00 0.00 31 1018.8
20260506230042 84 87 0.0 0.0 0.00 0.00 0.00 28 1019.0
20260506224549 84 63 0.0 0.0 0.00 0.00 0.00 30 1019.1
20260506223039 83 313 0.0 0.0 0.00 0.00 0.00 30 1019.4
20260506221536 83 282 0.0 0.0 0.00 0.00 0.00 31 1019.5
20260506220043 82 304 0.0 0.0 0.00 0.00 0.00 30 1019.6
20260506214535 82 286 0.0 0.0 0.00 0.00 0.00 33 1019.7
20260506213030 81 241 0.0 0.0 0.00 0.00 0.00 30 1019.8
20260506211528 81 221 0.0 0.0 0.00 0.00 0.00 30 1020.0